Location: L�Ave Maria
(50.7161°N, 1.5911°E)
Time: 13:09:20
(UTC+00:00)

Cosmos 2218 Rocket - Pass Details

Date: 10 July 2020
Orbit: 955 x 1007 km, 82.9° (Epoch: 06 August)

Event Time Altitude Azimuth Distance (km) Brightness Sun altitude
Exits shadow 23:20:06 21° 197° (SSW) 2,047 5.2 -16.7°
Maximum altitude 23:24:28 76° 281° (W) 1,022 4.1 -16.8°
Drops below altitude 10° 23:30:46 10° 7° (N) 2,740 7.6 -16.9°
Sets 23:33:18 0° 10° (N) 3,684 8.5 -17.0°
